Time,TemperatureF,DewpointF,PressureIn,WindDirection,WindDirectionDegrees,WindSpeedMPH,WindSpeedGustMPH,Humidity,HourlyPrecipIn,Conditions,Clouds,dailyrainin,SolarRadiationWatts/m^2,SoftwareType,DateUTC
2013-01-13 00:03:00,31.9,27.6,30.19,SW,227,0.0,0.0,84,0.00,,,0.00,0.0,WeatherDisplay:10.37,2013-01-13 08:03:00,
2013-01-13 00:08:00,31.9,27.6,30.19,SW,227,0.0,0.0,84,0.00,CLR,,0.00,0.0,WeatherDisplay:10.37,2013-01-13 08:08:00,
2013-01-13 00:13:00,31.9,27.6,30.19,SW,227,0.0,0.0,84,0.00,,,0.00,0.0,WeatherDisplay:10.37,2013-01-13 08:13:00,
2013-01-13 00:18:00,31.8,27.5,30.19,SW,227,0.0,0.0,84,0.00,,,0.00,0.0,WeatherDisplay:10.37,2013-01-13 08:18:00,
2013-01-13 00:23:00,31.9,27.9,30.19,SW,227,0.0,0.0,85,0.00,,,0.00,0.0,WeatherDisplay:10.37,2013-01-13 08:23:00,
2013-01-13 00:28:00,31.8,27.8,30.19,SW,227,0.0,0.0,85,0.00,,,0.00,0.0,WeatherDisplay:10.37,2013-01-13 08:28:00,
2013-01-13 00:33:00,31.7,27.7,30.19,SW,227,0.0,0.0,85,0.00,CLR,,0.00,0.0,WeatherDisplay:10.37,2013-01-13 08:33:00,
2013-01-13 00:38:00,31.6,27.6,30.19,SW,227,0.0,0.0,85,0.00,,,0.00,0.0,WeatherDisplay:10.37,2013-01-13 08:38:00,
2013-01-13 00:43:00,31.4,27.4,30.19,SW,227,0.0,0.0,85,0.00,CLR,,0.00,0.0,WeatherDisplay:10.37,2013-01-13 08:43:00,
2013-01-13 00:48:00,31.4,27.4,30.19,SW,227,1.2,1.2,85,0.00,,,0.00,0.0,WeatherDisplay:10.37,2013-01-13 08:48:00,
2013-01-13 00:53:00,31.4,27.4,30.19,SW,227,0.0,0.0,85,0.00,CLR,,0.00,0.0,WeatherDisplay:10.37,2013-01-13 08:53:00,
2013-01-13 00:58:00,31.4,27.4,30.19,SW,227,1.2,1.2,85,0.00,,,0.00,0.0,WeatherDisplay:10.37,2013-01-13 08:58:00,
2013-01-13 01:03:00,31.3,27.3,30.19,SW,227,1.2,1.2,85,0.00,,,0.00,0.0,WeatherDisplay:10.37,2013-01-13 09:03:00,
2013-01-13 01:08:00,31.1,27.1,30.19,SW,227,0.0,0.0,85,0.00,CLR,,0.00,0.0,WeatherDisplay:10.37,2013-01-13 09:08:00,
2013-01-13 01:13:00,31.0,27.0,30.20,SW,227,0.0,0.0,85,0.00,,,0.00,0.0,WeatherDisplay:10.37,2013-01-13 09:13:00,
2013-01-13 01:18:00,30.8,26.8,30.20,SW,227,0.0,0.0,85,0.00,,,0.00,0.0,WeatherDisplay:10.37,2013-01-13 09:18:00,
2013-01-13 01:23:00,30.7,26.7,30.20,SW,227,0.0,0.1,85,0.00,,,0.00,0.0,WeatherDisplay:10.37,2013-01-13 09:23:00,
2013-01-13 01:28:00,30.5,26.5,30.20,SW,227,0.0,0.0,85,0.00,,,0.00,0.0,WeatherDisplay:10.37,2013-01-13 09:28:00,
2013-01-13 01:33:00,30.3,26.3,30.19,SW,227,0.0,0.0,85,0.00,,,0.00,0.0,WeatherDisplay:10.37,2013-01-13 09:33:00,
2013-01-13 01:38:00,30.2,26.5,30.20,SW,227,0.0,0.0,86,0.00,,,0.00,0.0,WeatherDisplay:10.37,2013-01-13 09:38:00,
2013-01-13 01:43:00,30.0,26.3,30.20,SW,227,0.0,0.0,86,0.00,,,0.00,0.0,WeatherDisplay:10.37,2013-01-13 09:43:00,
2013-01-13 01:48:00,30.0,26.3,30.20,SW,227,0.0,0.0,86,0.00,,,0.00,0.0,WeatherDisplay:10.37,2013-01-13 09:48:00,
2013-01-13 01:53:00,30.1,26.4,30.21,SW,227,1.2,0.0,86,0.00,,,0.00,0.0,WeatherDisplay:10.37,2013-01-13 09:53:00,
2013-01-13 01:58:00,30.0,26.3,30.20,SW,227,0.0,0.0,86,0.00,,,0.00,0.0,WeatherDisplay:10.37,2013-01-13 09:58:00,
2013-01-13 02:03:00,29.8,26.1,30.20,SW,227,0.0,0.0,86,0.00,,,0.00,0.0,WeatherDisplay:10.37,2013-01-13 10:03:00,
2013-01-13 02:08:00,29.7,26.0,30.21,SW,227,1.2,1.2,86,0.00,,,0.00,0.0,WeatherDisplay:10.37,2013-01-13 10:08:00,
2013-01-13 02:13:00,29.9,26.5,30.21,SW,227,1.2,0.0,87,0.00,CLR,,0.00,0.0,WeatherDisplay:10.37,2013-01-13 10:13:00,
2013-01-13 02:18:00,29.9,26.5,30.21,SW,227,1.2,0.0,87,0.00,,,0.00,0.0,WeatherDisplay:10.37,2013-01-13 10:18:00,
2013-01-13 02:23:00,29.8,26.4,30.21,SW,227,0.0,0.0,87,0.00,,,0.00,0.0,WeatherDisplay:10.37,2013-01-13 10:23:00,
2013-01-13 02:28:00,29.8,26.4,30.22,SW,227,0.0,0.0,87,0.00,,,0.00,0.0,WeatherDisplay:10.37,2013-01-13 10:28:00,
2013-01-13 02:33:00,29.7,26.3,30.21,SW,227,0.0,0.0,87,0.00,,,0.00,0.0,WeatherDisplay:10.37,2013-01-13 10:33:00,
2013-01-13 02:38:00,29.5,26.1,30.22,SW,227,0.0,0.0,87,0.00,,,0.00,0.0,WeatherDisplay:10.37,2013-01-13 10:38:00,
2013-01-13 02:43:00,29.5,26.1,30.21,SW,227,0.0,0.0,87,0.00,,,0.00,0.0,WeatherDisplay:10.37,2013-01-13 10:43:00,
2013-01-13 02:48:00,29.4,26.0,30.22,SW,227,0.0,0.0,87,0.00,,,0.00,0.0,WeatherDisplay:10.37,2013-01-13 10:48:00,
2013-01-13 02:53:00,29.4,26.0,30.21,SW,227,0.0,0.0,87,0.00,,,0.00,0.0,WeatherDisplay:10.37,2013-01-13 10:53:00,
2013-01-13 02:58:00,29.2,25.8,30.21,SW,227,0.0,0.0,87,0.00,,,0.00,0.0,WeatherDisplay:10.37,2013-01-13 10:58:00,
2013-01-13 03:03:00,29.0,25.6,30.21,SW,227,0.0,0.0,87,0.00,,,0.00,0.0,WeatherDisplay:10.37,2013-01-13 11:03:00,
2013-01-13 03:08:00,28.8,25.4,30.21,SW,227,0.0,0.0,87,0.00,,,0.00,0.0,WeatherDisplay:10.37,2013-01-13 11:08:00,
2013-01-13 03:13:00,28.7,25.3,30.21,SW,227,0.0,0.0,87,0.00,,,0.00,0.0,WeatherDisplay:10.37,2013-01-13 11:13:00,
2013-01-13 03:18:00,28.5,25.1,30.21,SW,227,0.0,0.0,87,0.00,,,0.00,0.0,WeatherDisplay:10.37,2013-01-13 11:18:00,
2013-01-13 03:23:00,28.4,25.0,30.21,SW,227,0.0,0.0,87,0.00,CLR,,0.00,0.0,WeatherDisplay:10.37,2013-01-13 11:23:00,
2013-01-13 03:28:00,28.3,24.9,30.21,SW,227,0.0,0.0,87,0.00,,,0.00,0.0,WeatherDisplay:10.37,2013-01-13 11:28:00,
2013-01-13 03:33:00,28.3,24.9,30.21,SW,227,0.0,0.0,87,0.00,,,0.00,0.0,WeatherDisplay:10.37,2013-01-13 11:33:00,
2013-01-13 03:38:00,28.2,24.8,30.21,SW,227,0.0,0.0,87,0.00,,,0.00,0.0,WeatherDisplay:10.37,2013-01-13 11:38:00,
2013-01-13 03:43:00,28.1,24.7,30.21,SW,227,0.0,0.0,87,0.00,,,0.00,0.0,WeatherDisplay:10.37,2013-01-13 11:43:00,
2013-01-13 03:48:00,28.1,25.0,30.21,SW,227,1.2,0.0,88,0.00,,,0.00,0.0,WeatherDisplay:10.37,2013-01-13 11:48:00,
2013-01-13 03:53:00,28.2,25.1,30.21,SW,227,0.0,0.0,88,0.00,,,0.00,0.0,WeatherDisplay:10.37,2013-01-13 11:53:00,
2013-01-13 03:58:00,28.3,25.2,30.21,SW,227,0.0,0.0,88,0.00,,,0.00,0.0,WeatherDisplay:10.37,2013-01-13 11:58:00,
2013-01-13 04:03:00,28.3,25.2,30.21,SW,227,0.0,0.0,88,0.00,,,0.00,0.0,WeatherDisplay:10.37,2013-01-13 12:03:00,
2013-01-13 04:08:00,28.3,25.2,30.21,SW,227,1.2,1.2,88,0.00,,,0.00,0.0,WeatherDisplay:10.37,2013-01-13 12:08:00,
2013-01-13 04:13:00,28.4,25.3,30.21,SW,227,0.0,0.0,88,0.00,,,0.00,0.0,WeatherDisplay:10.37,2013-01-13 12:13:00,
2013-01-13 04:18:00,28.4,25.3,30.22,SW,227,0.0,0.0,88,0.00,,,0.00,0.0,WeatherDisplay:10.37,2013-01-13 12:18:00,
2013-01-13 04:23:00,28.3,25.2,30.22,SW,227,0.0,0.0,88,0.00,,,0.00,0.0,WeatherDisplay:10.37,2013-01-13 12:23:00,
2013-01-13 04:28:00,28.1,25.0,30.21,SW,227,0.0,0.0,88,0.00,,,0.00,0.0,WeatherDisplay:10.37,2013-01-13 12:28:00,
2013-01-13 04:33:00,27.9,24.8,30.21,SW,227,0.0,0.0,88,0.00,,,0.00,0.0,WeatherDisplay:10.37,2013-01-13 12:33:00,
2013-01-13 04:38:00,27.8,24.7,30.21,SW,227,0.0,0.0,88,0.00,,,0.00,0.0,WeatherDisplay:10.37,2013-01-13 12:38:00,
2013-01-13 04:43:00,27.7,24.6,30.21,SW,227,0.0,0.0,88,0.00,,,0.00,0.0,WeatherDisplay:10.37,2013-01-13 12:43:00,
2013-01-13 04:48:00,27.6,24.5,30.21,SW,227,0.0,0.0,88,0.00,,,0.00,0.0,WeatherDisplay:10.37,2013-01-13 12:48:00,
2013-01-13 04:53:00,27.6,24.5,30.21,SW,227,0.0,0.0,88,0.00,,,0.00,0.0,WeatherDisplay:10.37,2013-01-13 12:53:00,
2013-01-13 04:58:00,27.5,24.4,30.21,SW,227,1.2,0.0,88,0.00,,,0.00,0.0,WeatherDisplay:10.37,2013-01-13 12:58:00,
2013-01-13 05:03:00,27.7,24.6,30.21,SW,227,0.0,0.0,88,0.00,,,0.00,0.0,WeatherDisplay:10.37,2013-01-13 13:03:00,
2013-01-13 05:08:00,27.8,24.7,30.21,SW,227,0.0,0.0,88,0.00,,,0.00,0.0,WeatherDisplay:10.37,2013-01-13 13:08:00,
2013-01-13 05:13:00,27.7,24.6,30.21,SW,227,1.2,1.2,88,0.00,,,0.00,0.0,WeatherDisplay:10.37,2013-01-13 13:13:00,
2013-01-13 05:18:00,27.7,24.6,30.22,SW,227,0.0,0.0,88,0.00,,,0.00,0.0,WeatherDisplay:10.37,2013-01-13 13:18:00,
2013-01-13 05:23:00,27.7,24.6,30.21,SW,227,0.0,0.0,88,0.00,CLR,,0.00,0.0,WeatherDisplay:10.37,2013-01-13 13:23:00,
2013-01-13 05:28:00,27.6,24.5,30.22,SW,227,0.0,0.0,88,0.00,,,0.00,0.0,WeatherDisplay:10.37,2013-01-13 13:28:00,
2013-01-13 05:33:00,27.6,24.5,30.22,SW,227,0.0,0.0,88,0.00,,,0.00,0.0,WeatherDisplay:10.37,2013-01-13 13:33:00,
2013-01-13 05:38:00,27.5,24.7,30.23,SW,227,0.0,0.0,89,0.00,,,0.00,0.0,WeatherDisplay:10.37,2013-01-13 13:38:00,
2013-01-13 05:43:00,27.6,24.8,30.23,SW,227,1.2,0.0,89,0.00,,,0.00,0.0,WeatherDisplay:10.37,2013-01-13 13:43:00,
2013-01-13 05:48:00,27.6,24.8,30.23,SW,227,0.0,0.0,89,0.00,,,0.00,0.0,WeatherDisplay:10.37,2013-01-13 13:48:00,
2013-01-13 05:53:00,27.4,24.6,30.23,SW,227,0.0,0.0,89,0.00,,,0.00,0.0,WeatherDisplay:10.37,2013-01-13 13:53:00,
2013-01-13 05:58:00,27.3,24.2,30.23,SW,227,0.0,0.0,88,0.00,,,0.00,0.0,WeatherDisplay:10.37,2013-01-13 13:58:00,
2013-01-13 06:03:00,27.1,24.0,30.23,SW,227,0.0,0.0,88,0.00,CLR,,0.00,0.0,WeatherDisplay:10.37,2013-01-13 14:03:00,
2013-01-13 06:08:00,27.0,23.9,30.23,SW,227,0.0,0.0,88,0.00,,,0.00,0.0,WeatherDisplay:10.37,2013-01-13 14:08:00,
2013-01-13 06:13:00,26.8,23.7,30.23,SW,227,0.0,0.0,88,0.00,,,0.00,0.0,WeatherDisplay:10.37,2013-01-13 14:13:00,
2013-01-13 06:18:00,26.8,24.0,30.23,SW,227,0.0,0.0,89,0.00,,,0.00,0.0,WeatherDisplay:10.37,2013-01-13 14:18:00,
2013-01-13 06:23:00,26.7,23.9,30.23,SW,227,0.0,0.0,89,0.00,,,0.00,0.0,WeatherDisplay:10.37,2013-01-13 14:23:00,
2013-01-13 06:28:00,26.7,23.6,30.23,SW,227,0.0,0.0,88,0.00,,,0.00,0.0,WeatherDisplay:10.37,2013-01-13 14:28:00,
2013-01-13 06:33:00,26.6,23.5,30.23,SW,227,0.0,0.0,88,0.00,,,0.00,0.0,WeatherDisplay:10.37,2013-01-13 14:33:00,
2013-01-13 06:38:00,26.5,23.4,30.23,SW,227,0.0,0.0,88,0.00,,,0.00,0.0,WeatherDisplay:10.37,2013-01-13 14:38:00,
2013-01-13 06:43:00,26.5,23.7,30.24,SW,227,0.0,0.0,89,0.00,,,0.00,0.0,WeatherDisplay:10.37,2013-01-13 14:43:00,
2013-01-13 06:48:00,26.6,23.8,30.24,SW,227,0.0,0.0,89,0.00,,,0.00,0.0,WeatherDisplay:10.37,2013-01-13 14:48:00,
2013-01-13 06:53:00,26.7,23.9,30.24,SW,227,1.2,1.2,89,0.00,,,0.00,0.0,WeatherDisplay:10.37,2013-01-13 14:53:00,
2013-01-13 06:58:00,26.9,24.1,30.25,SW,227,0.0,0.0,89,0.00,,,0.00,0.0,WeatherDisplay:10.37,2013-01-13 14:58:00,
2013-01-13 07:03:00,27.0,24.2,30.24,SW,227,0.0,0.0,89,0.00,OVC,,0.00,0.0,WeatherDisplay:10.37,2013-01-13 15:03:00,
2013-01-13 07:08:00,26.9,24.1,30.24,SW,227,0.0,0.0,89,0.00,OVC,,0.00,0.0,WeatherDisplay:10.37,2013-01-13 15:08:00,
2013-01-13 07:13:00,26.7,23.9,30.25,SW,227,0.0,0.0,89,0.00,OVC,,0.00,0.0,WeatherDisplay:10.37,2013-01-13 15:13:00,
2013-01-13 07:18:00,26.5,23.7,30.25,SW,227,0.0,0.0,89,0.00,OVC,,0.00,0.0,WeatherDisplay:10.37,2013-01-13 15:18:00,
2013-01-13 07:23:00,26.3,23.5,30.25,SW,227,0.0,0.0,89,0.00,OVC,,0.00,5.0,WeatherDisplay:10.37,2013-01-13 15:23:00,
2013-01-13 07:28:00,26.2,23.4,30.25,SW,227,0.0,0.0,89,0.00,CLR,,0.00,7.0,WeatherDisplay:10.37,2013-01-13 15:28:00,
2013-01-13 07:33:00,26.2,23.4,30.25,SW,227,0.0,0.0,89,0.00,SCT,,0.00,9.0,WeatherDisplay:10.37,2013-01-13 15:33:00,
2013-01-13 07:38:00,26.2,23.4,30.25,SW,227,0.0,0.0,89,0.00,BKN,,0.00,12.0,WeatherDisplay:10.37,2013-01-13 15:38:00,
2013-01-13 07:43:00,26.2,23.4,30.25,SW,227,0.0,0.0,89,0.00,SCT,,0.00,19.0,WeatherDisplay:10.37,2013-01-13 15:43:00,
2013-01-13 07:48:00,26.9,24.1,30.25,SW,227,0.0,0.0,89,0.00,SCT,,0.00,26.0,WeatherDisplay:10.37,2013-01-13 15:48:00,
2013-01-13 07:53:00,27.4,24.6,30.25,SW,227,0.0,0.0,89,0.00,FEW,,0.00,44.0,WeatherDisplay:10.37,2013-01-13 15:53:00,
2013-01-13 07:58:00,28.0,25.4,30.26,SW,227,0.0,0.0,90,0.00,CLR,,0.00,69.0,WeatherDisplay:10.37,2013-01-13 15:58:00,
2013-01-13 08:03:00,28.6,26.0,30.25,SW,227,0.0,0.0,90,0.00,CLR,,0.00,90.0,WeatherDisplay:10.37,2013-01-13 16:03:00,
2013-01-13 08:08:00,28.7,26.1,30.25,SW,227,0.0,0.0,90,0.00,CLR,,0.00,98.0,WeatherDisplay:10.37,2013-01-13 16:08:00,
2013-01-13 08:13:00,29.8,27.2,30.25,SW,227,0.0,0.0,90,0.00,CLR,,0.00,102.0,WeatherDisplay:10.37,2013-01-13 16:13:00,
2013-01-13 08:18:00,30.4,27.8,30.25,SW,227,0.0,0.0,90,0.00,CLR,,0.00,105.0,WeatherDisplay:10.37,2013-01-13 16:18:00,
2013-01-13 08:23:00,30.7,28.1,30.25,SW,227,0.0,0.0,90,0.00,CLR,,0.00,111.0,WeatherDisplay:10.37,2013-01-13 16:23:00,
2013-01-13 08:28:00,31.1,28.2,30.25,SW,227,0.0,0.0,89,0.00,CLR,,0.00,128.0,WeatherDisplay:10.37,2013-01-13 16:28:00,
2013-01-13 08:33:00,31.8,28.7,30.25,SW,227,0.0,0.0,88,0.00,CLR,,0.00,146.0,WeatherDisplay:10.37,2013-01-13 16:33:00,
2013-01-13 08:38:00,32.7,29.3,30.26,SW,227,0.0,0.0,87,0.00,CLR,,0.00,163.0,WeatherDisplay:10.37,2013-01-13 16:38:00,
2013-01-13 08:43:00,34.1,30.1,30.27,SW,227,0.0,0.0,85,0.00,CLR,,0.00,179.0,WeatherDisplay:10.37,2013-01-13 16:43:00,
2013-01-13 08:48:00,35.3,30.7,30.26,SW,227,0.0,0.0,83,0.00,CLR,,0.00,197.0,WeatherDisplay:10.37,2013-01-13 16:48:00,
2013-01-13 08:53:00,36.1,30.5,30.26,SW,227,0.0,0.0,80,0.00,CLR,,0.00,186.0,WeatherDisplay:10.37,2013-01-13 16:53:00,
2013-01-13 08:58:00,36.7,30.8,30.26,SW,227,0.0,0.0,79,0.00,CLR,,0.00,237.0,WeatherDisplay:10.37,2013-01-13 16:58:00,
2013-01-13 09:03:00,37.9,31.0,30.26,SW,227,0.0,0.0,76,0.00,CLR,,0.00,251.0,WeatherDisplay:10.37,2013-01-13 17:03:00,
2013-01-13 09:08:00,38.7,29.4,30.26,SW,227,0.0,0.0,69,0.00,CLR,,0.00,276.0,WeatherDisplay:10.37,2013-01-13 17:08:00,
2013-01-13 09:13:00,39.4,29.3,30.26,SW,227,0.0,0.0,67,0.00,CLR,,0.00,292.0,WeatherDisplay:10.37,2013-01-13 17:13:00,
2013-01-13 09:18:00,39.9,29.8,30.27,SW,227,0.0,0.0,67,0.00,CLR,,0.00,287.0,WeatherDisplay:10.37,2013-01-13 17:18:00,
2013-01-13 09:23:00,40.5,28.9,30.27,South,169,1.2,0.0,63,0.00,CLR,,0.00,308.0,WeatherDisplay:10.37,2013-01-13 17:23:00,
2013-01-13 09:28:00,40.7,29.8,30.27,SSE,168,1.2,0.0,65,0.00,CLR,,0.00,323.0,WeatherDisplay:10.37,2013-01-13 17:28:00,
2013-01-13 09:33:00,40.7,28.3,30.27,East,92,1.2,1.2,61,0.00,CLR,,0.00,302.0,WeatherDisplay:10.37,2013-01-13 17:33:00,
2013-01-13 09:38:00,40.8,28.8,30.27,ENE,75,0.0,0.0,62,0.00,CLR,,0.00,274.0,WeatherDisplay:10.37,2013-01-13 17:38:00,
2013-01-13 09:43:00,40.6,27.4,30.27,East,88,2.3,2.3,59,0.00,CLR,,0.00,330.0,WeatherDisplay:10.37,2013-01-13 17:43:00,
2013-01-13 09:48:00,40.9,27.7,30.27,NE,51,1.0,0.0,59,0.00,CLR,,0.00,334.0,WeatherDisplay:10.37,2013-01-13 17:48:00,
2013-01-13 09:53:00,41.4,28.1,30.26,NE,51,0.0,0.0,59,0.00,CLR,,0.00,353.0,WeatherDisplay:10.37,2013-01-13 17:53:00,
2013-01-13 09:58:00,41.7,27.6,30.26,NE,51,0.0,0.0,57,0.00,CLR,,0.00,371.0,WeatherDisplay:10.37,2013-01-13 17:58:00,
2013-01-13 10:03:00,41.7,27.1,30.26,East,88,1.2,0.0,56,0.00,CLR,,0.00,381.0,WeatherDisplay:10.37,2013-01-13 18:03:00,
2013-01-13 10:08:00,41.9,26.0,30.26,East,88,1.2,0.0,53,0.00,CLR,,0.00,353.0,WeatherDisplay:10.37,2013-01-13 18:08:00,
2013-01-13 10:13:00,42.4,26.9,30.26,East,94,2.3,2.3,54,0.00,CLR,,0.00,357.0,WeatherDisplay:10.37,2013-01-13 18:13:00,
2013-01-13 10:18:00,42.4,26.0,30.26,SSW,195,0.0,0.0,52,0.00,CLR,,0.00,313.0,WeatherDisplay:10.37,2013-01-13 18:18:00,
2013-01-13 10:23:00,42.6,26.2,30.25,NE,51,1.2,0.0,52,0.00,CLR,,0.00,330.0,WeatherDisplay:10.37,2013-01-13 18:23:00,
2013-01-13 10:28:00,42.9,26.0,30.25,NE,51,0.0,0.0,51,0.00,CLR,,0.00,350.0,WeatherDisplay:10.37,2013-01-13 18:28:00,
2013-01-13 10:33:00,43.0,26.1,30.25,ENE,61,1.2,1.2,51,0.00,CLR,,0.00,348.0,WeatherDisplay:10.37,2013-01-13 18:33:00,
2013-01-13 10:38:00,42.9,26.0,30.25,South,170,0.0,0.0,51,0.00,CLR,,0.00,374.0,WeatherDisplay:10.37,2013-01-13 18:38:00,
2013-01-13 10:43:00,43.4,26.0,30.24,South,189,3.5,3.5,50,0.00,CLR,,0.00,381.0,WeatherDisplay:10.37,2013-01-13 18:43:00,
2013-01-13 10:48:00,43.8,25.9,30.24,South,190,1.2,1.2,49,0.00,CLR,,0.00,392.0,WeatherDisplay:10.37,2013-01-13 18:48:00,
2013-01-13 10:53:00,44.1,25.6,30.25,ESE,103,2.3,2.3,48,0.00,CLR,,0.00,406.0,WeatherDisplay:10.37,2013-01-13 18:53:00,
2013-01-13 10:58:00,44.5,25.5,30.24,ESE,105,1.2,1.2,47,0.00,CLR,,0.00,446.0,WeatherDisplay:10.37,2013-01-13 18:58:00,
2013-01-13 11:03:00,44.6,25.6,30.24,SE,129,2.3,2.3,47,0.00,CLR,,0.00,459.0,WeatherDisplay:10.37,2013-01-13 19:03:00,
2013-01-13 11:08:00,45.3,25.7,30.24,SSE,163,0.0,0.0,46,0.00,CLR,,0.00,404.0,WeatherDisplay:10.37,2013-01-13 19:08:00,
2013-01-13 11:13:00,45.6,26.0,30.24,SE,144,1.2,1.2,46,0.00,CLR,,0.00,394.0,WeatherDisplay:10.37,2013-01-13 19:13:00,
2013-01-13 11:18:00,45.6,27.0,30.24,East,90,2.3,2.3,48,0.00,CLR,,0.00,415.0,WeatherDisplay:10.37,2013-01-13 19:18:00,
2013-01-13 11:23:00,45.2,26.7,30.24,East,92,3.5,3.5,48,0.00,CLR,,0.00,403.0,WeatherDisplay:10.37,2013-01-13 19:23:00,
2013-01-13 11:28:00,45.5,27.9,30.24,East,91,1.2,1.2,50,0.00,CLR,,0.00,432.0,WeatherDisplay:10.37,2013-01-13 19:28:00,
2013-01-13 11:33:00,45.5,26.9,30.23,East,84,3.5,3.5,48,0.00,CLR,,0.00,494.0,WeatherDisplay:10.37,2013-01-13 19:33:00,
2013-01-13 11:38:00,45.4,26.8,30.23,East,88,3.5,3.5,48,0.00,CLR,,0.00,504.0,WeatherDisplay:10.37,2013-01-13 19:38:00,
2013-01-13 11:43:00,45.9,26.3,30.23,East,95,3.5,3.5,46,0.00,CLR,,0.00,471.0,WeatherDisplay:10.37,2013-01-13 19:43:00,
2013-01-13 11:48:00,45.8,26.2,30.23,East,101,2.0,2.0,46,0.00,CLR,,0.00,478.0,WeatherDisplay:10.37,2013-01-13 19:48:00,
2013-01-13 11:53:00,46.4,25.6,30.23,NE,49,2.3,2.3,44,0.00,CLR,,0.00,512.0,WeatherDisplay:10.37,2013-01-13 19:53:00,
2013-01-13 11:58:00,46.8,26.0,30.23,NNE,32,2.3,2.3,44,0.00,CLR,,0.00,554.0,WeatherDisplay:10.37,2013-01-13 19:58:00,
2013-01-13 12:03:00,47.5,26.1,30.23,NE,35,1.2,1.2,43,0.00,CLR,,0.00,499.0,WeatherDisplay:10.37,2013-01-13 20:03:00,
2013-01-13 12:08:00,47.3,26.5,30.22,ENE,63,2.3,2.3,44,0.00,CLR,,0.00,487.0,WeatherDisplay:10.37,2013-01-13 20:08:00,
2013-01-13 12:13:00,47.4,26.6,30.22,East,80,1.2,1.2,44,0.00,CLR,,0.00,468.0,WeatherDisplay:10.37,2013-01-13 20:13:00,
2013-01-13 12:18:00,47.7,24.5,30.22,East,79,1.2,1.2,40,0.00,CLR,,0.00,497.0,WeatherDisplay:10.37,2013-01-13 20:18:00,
2013-01-13 12:23:00,48.3,25.1,30.21,East,79,1.2,1.2,40,0.00,CLR,,0.00,415.0,WeatherDisplay:10.37,2013-01-13 20:23:00,
2013-01-13 12:28:00,49.1,25.8,30.21,East,80,1.2,1.2,40,0.00,CLR,,0.00,496.0,WeatherDisplay:10.37,2013-01-13 20:28:00,
2013-01-13 12:33:00,48.4,23.3,30.21,WNW,293,3.5,3.5,37,0.00,CLR,,0.00,452.0,WeatherDisplay:10.37,2013-01-13 20:33:00,
2013-01-13 12:38:00,47.3,21.7,30.21,NW,317,3.5,3.5,36,0.00,CLR,,0.00,475.0,WeatherDisplay:10.37,2013-01-13 20:38:00,
2013-01-13 12:43:00,47.3,21.7,30.21,NW,310,2.3,2.3,36,0.00,CLR,,0.00,538.0,WeatherDisplay:10.37,2013-01-13 20:43:00,
2013-01-13 12:48:00,47.2,22.9,30.21,West,277,4.0,4.0,38,0.00,CLR,,0.00,492.0,WeatherDisplay:10.37,2013-01-13 20:48:00,
2013-01-13 12:53:00,48.1,21.7,30.21,WNW,295,2.3,2.3,35,0.00,CLR,,0.00,503.0,WeatherDisplay:10.37,2013-01-13 20:53:00,
2013-01-13 12:58:00,48.5,21.4,30.20,WNW,288,3.5,3.5,34,0.00,CLR,,0.00,448.0,WeatherDisplay:10.37,2013-01-13 20:58:00,
2013-01-13 13:03:00,47.1,20.8,30.20,SW,222,3.5,3.5,35,0.00,CLR,,0.00,473.0,WeatherDisplay:10.37,2013-01-13 21:03:00,
2013-01-13 13:08:00,47.7,22.7,30.20,WNW,296,4.0,4.0,37,0.00,CLR,,0.00,483.0,WeatherDisplay:10.37,2013-01-13 21:08:00,
2013-01-13 13:13:00,47.5,23.1,30.19,WNW,300,0.0,0.0,38,0.00,CLR,,0.00,466.0,WeatherDisplay:10.37,2013-01-13 21:13:00,
2013-01-13 13:18:00,48.6,22.1,30.19,NE,40,1.2,1.2,35,0.00,CLR,,0.00,454.0,WeatherDisplay:10.37,2013-01-13 21:18:00,
2013-01-13 13:23:00,48.6,22.1,30.19,ENE,60,1.2,1.2,35,0.00,CLR,,0.00,427.0,WeatherDisplay:10.37,2013-01-13 21:23:00,
2013-01-13 13:28:00,48.0,21.6,30.19,West,281,1.2,0.0,35,0.00,CLR,,0.00,490.0,WeatherDisplay:10.37,2013-01-13 21:28:00,
2013-01-13 13:33:00,49.2,22.0,30.19,West,280,0.0,0.0,34,0.00,CLR,,0.00,445.0,WeatherDisplay:10.37,2013-01-13 21:33:00,
2013-01-13 13:38:00,49.5,21.5,30.19,WNW,287,5.8,5.8,33,0.00,CLR,,0.00,499.0,WeatherDisplay:10.37,2013-01-13 21:38:00,
2013-01-13 13:43:00,48.9,22.4,30.18,NW,314,4.0,4.4,35,0.00,CLR,,0.00,496.0,WeatherDisplay:10.37,2013-01-13 21:43:00,
2013-01-13 13:48:00,49.4,22.9,30.18,NW,313,1.2,1.2,35,0.00,CLR,,0.00,434.0,WeatherDisplay:10.37,2013-01-13 21:48:00,
2013-01-13 13:53:00,49.7,21.7,30.18,NW,317,3.5,3.5,33,0.00,CLR,,0.00,468.0,WeatherDisplay:10.37,2013-01-13 21:53:00,
2013-01-13 13:58:00,49.4,20.7,30.18,West,271,3.5,3.5,32,0.00,CLR,,0.00,387.0,WeatherDisplay:10.37,2013-01-13 21:58:00,
2013-01-13 14:03:00,49.8,21.8,30.18,West,277,1.2,1.2,33,0.00,CLR,,0.00,301.0,WeatherDisplay:10.37,2013-01-13 22:03:00,
2013-01-13 14:08:00,49.2,20.6,30.18,WNW,303,3.5,3.5,32,0.00,CLR,,0.00,388.0,WeatherDisplay:10.37,2013-01-13 22:08:00,
2013-01-13 14:13:00,49.7,21.7,30.18,NW,313,1.2,1.2,33,0.00,CLR,,0.00,399.0,WeatherDisplay:10.37,2013-01-13 22:13:00,
2013-01-13 14:18:00,50.2,21.4,30.18,NNE,21,1.2,1.2,32,0.00,CLR,,0.00,309.0,WeatherDisplay:10.37,2013-01-13 22:18:00,
2013-01-13 14:23:00,50.1,21.3,30.18,North,5,1.2,1.2,32,0.00,CLR,,0.00,279.0,WeatherDisplay:10.37,2013-01-13 22:23:00,
2013-01-13 14:28:00,50.0,22.0,30.18,West,280,5.0,5.0,33,0.00,FEW,,0.00,230.0,WeatherDisplay:10.37,2013-01-13 22:28:00,
2013-01-13 14:33:00,49.4,20.7,30.18,NW,309,4.6,4.6,32,0.00,FEW,,0.00,142.0,WeatherDisplay:10.37,2013-01-13 22:33:00,
2013-01-13 14:38:00,49.1,20.5,30.19,NW,322,2.3,2.3,32,0.00,SCT,,0.00,158.0,WeatherDisplay:10.37,2013-01-13 22:38:00,
2013-01-13 14:43:00,48.9,21.0,30.18,NNW,331,5.8,5.8,33,0.00,SCT,,0.00,264.0,WeatherDisplay:10.37,2013-01-13 22:43:00,
2013-01-13 14:48:00,49.3,22.1,30.18,NNW,330,1.2,1.2,34,0.00,FEW,,0.00,223.0,WeatherDisplay:10.37,2013-01-13 22:48:00,
2013-01-13 14:53:00,49.2,21.3,30.18,NW,314,4.6,4.6,33,0.00,CLR,,0.00,255.0,WeatherDisplay:10.37,2013-01-13 22:53:00,
2013-01-13 14:58:00,48.9,21.7,30.18,NNW,332,3.5,3.5,34,0.00,CLR,,0.00,313.0,WeatherDisplay:10.37,2013-01-13 22:58:00,
2013-01-13 15:03:00,49.6,22.3,30.18,WNW,296,5.0,5.0,34,0.00,CLR,,0.00,316.0,WeatherDisplay:10.37,2013-01-13 23:03:00,
2013-01-13 15:08:00,49.4,23.5,30.18,WNW,296,4.0,4.0,36,0.00,CLR,,0.00,302.0,WeatherDisplay:10.37,2013-01-13 23:08:00,
2013-01-13 15:13:00,49.4,22.9,30.18,NW,309,2.0,2.0,35,0.00,CLR,,0.00,294.0,WeatherDisplay:10.37,2013-01-13 23:13:00,
2013-01-13 15:18:00,49.3,22.8,30.17,WNW,292,6.9,6.9,35,0.00,CLR,,0.00,279.0,WeatherDisplay:10.37,2013-01-13 23:18:00,
2013-01-13 15:23:00,49.3,24.1,30.17,NW,325,4.0,4.0,37,0.00,CLR,,0.00,267.0,WeatherDisplay:10.37,2013-01-13 23:23:00,
2013-01-13 15:28:00,49.5,24.9,30.17,NW,312,3.5,3.5,38,0.00,CLR,,0.00,253.0,WeatherDisplay:10.37,2013-01-13 23:28:00,
2013-01-13 15:33:00,50.0,25.4,30.17,NW,310,4.0,4.0,38,0.00,CLR,,0.00,236.0,WeatherDisplay:10.37,2013-01-13 23:33:00,
2013-01-13 15:38:00,49.5,24.9,30.17,NNW,336,2.3,2.3,38,0.00,CLR,,0.00,220.0,WeatherDisplay:10.37,2013-01-13 23:38:00,
2013-01-13 15:43:00,49.0,25.1,30.18,WNW,292,6.9,6.9,39,0.00,CLR,,0.00,202.0,WeatherDisplay:10.37,2013-01-13 23:43:00,
2013-01-13 15:48:00,49.0,25.7,30.18,NW,314,1.2,1.2,40,0.00,CLR,,0.00,63.0,WeatherDisplay:10.37,2013-01-13 23:48:00,
2013-01-13 15:53:00,48.5,26.4,30.18,WNW,303,4.6,4.6,42,0.00,FEW,,0.00,46.0,WeatherDisplay:10.37,2013-01-13 23:53:00,
2013-01-13 15:58:00,48.5,27.0,30.17,WNW,302,0.0,0.0,43,0.00,BKN,,0.00,35.0,WeatherDisplay:10.37,2013-01-13 23:58:00,
2013-01-13 16:03:00,48.5,28.1,30.17,WNW,291,3.5,3.5,45,0.00,BKN,,0.00,30.0,WeatherDisplay:10.37,2013-01-14 00:03:00,
2013-01-13 16:08:00,48.5,28.6,30.17,WNW,283,4.0,4.0,46,0.00,BKN,,0.00,28.0,WeatherDisplay:10.37,2013-01-14 00:08:00,
2013-01-13 16:13:00,48.3,29.0,30.17,WNW,303,5.0,5.0,47,0.00,BKN,,0.00,28.0,WeatherDisplay:10.37,2013-01-14 00:13:00,
2013-01-13 16:18:00,48.1,29.3,30.17,WNW,296,5.0,5.0,48,0.00,BKN,,0.00,26.0,WeatherDisplay:10.37,2013-01-14 00:18:00,
2013-01-13 16:23:00,47.9,29.6,30.17,WNW,302,0.0,0.0,49,0.00,BKN,,0.00,25.0,WeatherDisplay:10.37,2013-01-14 00:23:00,
2013-01-13 16:28:00,47.8,29.5,30.17,WNW,283,1.2,1.2,49,0.00,BKN,,0.00,25.0,WeatherDisplay:10.37,2013-01-14 00:28:00,
2013-01-13 16:33:00,47.6,29.9,30.17,WNW,293,4.0,4.0,50,0.00,BKN,,0.00,21.0,WeatherDisplay:10.37,2013-01-14 00:33:00,
2013-01-13 16:38:00,47.5,29.8,30.17,WNW,299,4.6,4.6,50,0.00,BKN,,0.00,19.0,WeatherDisplay:10.37,2013-01-14 00:38:00,
2013-01-13 16:43:00,47.4,29.7,30.17,NW,321,4.6,4.6,50,0.00,BKN,,0.00,18.0,WeatherDisplay:10.37,2013-01-14 00:43:00,
2013-01-13 16:48:00,47.2,30.0,30.17,WNW,291,3.5,3.5,51,0.00,BKN,,0.00,16.0,WeatherDisplay:10.37,2013-01-14 00:48:00,
2013-01-13 16:53:00,47.1,29.9,30.17,WNW,300,2.3,0.0,51,0.00,BKN,,0.00,14.0,WeatherDisplay:10.37,2013-01-14 00:53:00,
2013-01-13 16:58:00,46.9,30.2,30.17,WNW,300,1.2,1.2,52,0.00,SCT,,0.00,11.0,WeatherDisplay:10.37,2013-01-14 00:58:00,
2013-01-13 17:03:00,46.6,30.4,30.17,WNW,300,2.3,2.3,53,0.00,SCT,,0.00,7.0,WeatherDisplay:10.37,2013-01-14 01:03:00,
2013-01-13 17:08:00,46.3,30.1,30.17,WNW,300,0.0,0.0,53,0.00,CLR,,0.00,7.0,WeatherDisplay:10.37,2013-01-14 01:08:00,
2013-01-13 17:13:00,46.0,30.3,30.17,WNW,300,0.0,0.0,54,0.00,OVC,,0.00,0.0,WeatherDisplay:10.37,2013-01-14 01:13:00,
2013-01-13 17:18:00,45.6,30.3,30.17,WNW,300,0.0,0.0,55,0.00,OVC,,0.00,0.0,WeatherDisplay:10.37,2013-01-14 01:18:00,
2013-01-13 17:23:00,45.2,30.0,30.17,WNW,300,0.0,0.0,55,0.00,OVC,,0.00,0.0,WeatherDisplay:10.37,2013-01-14 01:23:00,
2013-01-13 17:28:00,44.7,30.0,30.17,WNW,300,0.0,0.0,56,0.00,OVC,,0.00,0.0,WeatherDisplay:10.37,2013-01-14 01:28:00,
2013-01-13 17:33:00,44.1,29.8,30.17,WNW,300,0.0,0.0,57,0.00,OVC,,0.00,0.0,WeatherDisplay:10.37,2013-01-14 01:33:00,
2013-01-13 17:38:00,43.5,29.7,30.17,WNW,300,0.0,0.0,58,0.00,OVC,,0.00,0.0,WeatherDisplay:10.37,2013-01-14 01:38:00,
2013-01-13 17:43:00,43.0,29.6,30.17,WNW,300,0.0,0.0,59,0.00,,,0.00,0.0,WeatherDisplay:10.37,2013-01-14 01:43:00,
2013-01-13 17:48:00,42.5,29.6,30.17,WNW,300,0.0,0.0,60,0.00,CLR,,0.00,0.0,WeatherDisplay:10.37,2013-01-14 01:48:00,
2013-01-13 17:53:00,42.0,29.5,30.17,WNW,300,0.0,0.0,61,0.00,,,0.00,0.0,WeatherDisplay:10.37,2013-01-14 01:53:00,
2013-01-13 17:58:00,41.5,29.0,30.18,WNW,300,0.0,0.0,61,0.00,,,0.00,0.0,WeatherDisplay:10.37,2013-01-14 01:58:00,
2013-01-13 18:03:00,41.1,29.1,30.18,WNW,300,0.0,0.0,62,0.00,,,0.00,0.0,WeatherDisplay:10.37,2013-01-14 02:03:00,
2013-01-13 18:08:00,40.7,29.5,30.18,WNW,300,0.0,0.0,64,0.00,,,0.00,0.0,WeatherDisplay:10.37,2013-01-14 02:08:00,
2013-01-13 18:13:00,40.4,29.6,30.18,WNW,300,0.0,0.0,65,0.00,,,0.00,0.0,WeatherDisplay:10.37,2013-01-14 02:13:00,
2013-01-13 18:18:00,40.0,29.6,30.17,WNW,300,0.0,0.0,66,0.00,,,0.00,0.0,WeatherDisplay:10.37,2013-01-14 02:18:00,
2013-01-13 18:23:00,39.7,29.3,30.17,WNW,300,0.0,0.0,66,0.00,CLR,,0.00,0.0,WeatherDisplay:10.37,2013-01-14 02:23:00,
2013-01-13 18:28:00,39.3,29.3,30.18,WNW,300,0.0,0.0,67,0.00,,,0.00,0.0,WeatherDisplay:10.37,2013-01-14 02:28:00,
2013-01-13 18:33:00,39.1,29.4,30.18,WNW,300,0.0,0.0,68,0.00,,,0.00,0.0,WeatherDisplay:10.37,2013-01-14 02:33:00,
2013-01-13 18:38:00,38.8,29.5,30.18,WNW,300,0.0,0.0,69,0.00,,,0.00,0.0,WeatherDisplay:10.37,2013-01-14 02:38:00,
2013-01-13 18:43:00,38.5,29.6,30.18,WNW,300,0.0,0.0,70,0.00,,,0.00,0.0,WeatherDisplay:10.37,2013-01-14 02:43:00,
2013-01-13 18:48:00,38.3,29.4,30.18,WNW,300,0.0,0.0,70,0.00,,,0.00,0.0,WeatherDisplay:10.37,2013-01-14 02:48:00,
2013-01-13 18:53:00,38.0,29.1,30.18,WNW,300,0.0,0.0,70,0.00,,,0.00,0.0,WeatherDisplay:10.37,2013-01-14 02:53:00,
2013-01-13 18:58:00,37.8,29.2,30.18,WNW,300,0.0,0.0,71,0.00,,,0.00,0.0,WeatherDisplay:10.37,2013-01-14 02:58:00,
2013-01-13 19:03:00,37.4,29.2,30.18,WNW,300,0.0,0.0,72,0.00,,,0.00,0.0,WeatherDisplay:10.37,2013-01-14 03:03:00,
2013-01-13 19:08:00,37.2,29.3,30.18,WNW,300,0.0,0.0,73,0.00,,,0.00,0.0,WeatherDisplay:10.37,2013-01-14 03:08:00,
2013-01-13 19:13:00,37.0,29.5,30.18,WNW,300,0.0,0.0,74,0.00,CLR,,0.00,0.0,WeatherDisplay:10.37,2013-01-14 03:13:00,
2013-01-13 19:18:00,36.8,29.3,30.18,WNW,300,0.0,0.0,74,0.00,CLR,,0.00,0.0,WeatherDisplay:10.37,2013-01-14 03:18:00,
2013-01-13 19:23:00,36.6,29.4,30.18,WNW,300,0.0,0.0,75,0.00,CLR,,0.00,0.0,WeatherDisplay:10.37,2013-01-14 03:23:00,
2013-01-13 19:28:00,36.4,29.2,30.19,WNW,300,0.0,0.0,75,0.00,,,0.00,0.0,WeatherDisplay:10.37,2013-01-14 03:28:00,
2013-01-13 19:33:00,36.1,29.3,30.19,WNW,300,0.0,0.0,76,0.00,,,0.00,0.0,WeatherDisplay:10.37,2013-01-14 03:33:00,
2013-01-13 19:38:00,36.0,29.5,30.19,WNW,300,0.0,0.0,77,0.00,,,0.00,0.0,WeatherDisplay:10.37,2013-01-14 03:38:00,
2013-01-13 19:43:00,35.9,29.4,30.19,WNW,300,0.0,0.0,77,0.00,,,0.00,0.0,WeatherDisplay:10.37,2013-01-14 03:43:00,
2013-01-13 19:48:00,35.7,29.5,30.19,WNW,300,0.0,0.0,78,0.00,,,0.00,0.0,WeatherDisplay:10.37,2013-01-14 03:48:00,
2013-01-13 19:53:00,35.5,29.3,30.19,WNW,300,0.0,0.0,78,0.00,,,0.00,0.0,WeatherDisplay:10.37,2013-01-14 03:53:00,
2013-01-13 19:58:00,35.5,29.3,30.19,WNW,300,0.0,0.0,78,0.00,,,0.00,0.0,WeatherDisplay:10.37,2013-01-14 03:58:00,
2013-01-13 20:03:00,35.3,29.1,30.19,WNW,300,0.0,0.0,78,0.00,,,0.00,0.0,WeatherDisplay:10.37,2013-01-14 04:03:00,
2013-01-13 20:08:00,35.1,28.9,30.19,WNW,300,0.0,0.0,78,0.00,,,0.00,0.0,WeatherDisplay:10.37,2013-01-14 04:08:00,
2013-01-13 20:13:00,34.7,28.5,30.19,WNW,300,0.0,0.0,78,0.00,,,0.00,0.0,WeatherDisplay:10.37,2013-01-14 04:13:00,
2013-01-13 20:18:00,34.4,28.2,30.19,WNW,300,0.0,0.0,78,0.00,,,0.00,0.0,WeatherDisplay:10.37,2013-01-14 04:18:00,
2013-01-13 20:23:00,34.4,28.6,30.19,WNW,300,0.0,0.0,79,0.00,,,0.00,0.0,WeatherDisplay:10.37,2013-01-14 04:23:00,
2013-01-13 20:28:00,34.2,28.4,30.19,WNW,300,0.0,0.0,79,0.00,,,0.00,0.0,WeatherDisplay:10.37,2013-01-14 04:28:00,
2013-01-13 20:33:00,34.0,28.5,30.20,WNW,300,0.0,0.0,80,0.00,,,0.00,0.0,WeatherDisplay:10.37,2013-01-14 04:33:00,
2013-01-13 20:38:00,33.9,28.4,30.19,WNW,300,0.0,0.1,80,0.00,,,0.00,0.0,WeatherDisplay:10.37,2013-01-14 04:38:00,
2013-01-13 20:43:00,33.8,28.3,30.19,WNW,300,0.0,0.0,80,0.00,CLR,,0.00,0.0,WeatherDisplay:10.37,2013-01-14 04:43:00,
2013-01-13 20:48:00,33.6,28.1,30.19,WNW,300,0.0,0.0,80,0.00,,,0.00,0.0,WeatherDisplay:10.37,2013-01-14 04:48:00,
2013-01-13 20:53:00,33.4,28.2,30.19,WNW,300,0.0,0.0,81,0.00,,,0.00,0.0,WeatherDisplay:10.37,2013-01-14 04:53:00,
2013-01-13 20:58:00,33.2,28.0,30.19,WNW,300,0.0,0.0,81,0.00,,,0.00,0.0,WeatherDisplay:10.37,2013-01-14 04:58:00,
2013-01-13 21:02:00,33.1,27.9,30.19,WNW,300,0.0,0.0,81,0.00,,,0.00,0.0,WeatherDisplay:10.37,2013-01-14 05:02:00,
2013-01-13 21:03:00,33.0,27.8,30.19,WNW,300,0.0,0.0,81,0.00,,,0.00,0.0,WeatherDisplay:10.37,2013-01-14 05:03:00,
2013-01-13 21:04:00,33.0,27.8,30.19,WNW,300,0.0,0.0,81,0.00,,,0.00,0.0,WeatherDisplay:10.37,2013-01-14 05:04:00,
2013-01-13 21:09:00,32.8,27.6,30.19,WNW,300,1.2,0.0,81,0.00,,,0.00,0.0,WeatherDisplay:10.37,2013-01-14 05:09:00,
2013-01-13 21:14:00,32.8,27.9,30.19,WNW,300,0.0,0.0,82,0.00,,,0.00,0.0,WeatherDisplay:10.37,2013-01-14 05:14:00,
2013-01-13 21:19:00,32.8,27.9,30.19,WNW,300,0.0,0.0,82,0.00,,,0.00,0.0,WeatherDisplay:10.37,2013-01-14 05:19:00,
2013-01-13 21:24:00,32.7,27.8,30.19,WNW,300,0.0,0.0,82,0.00,,,0.00,0.0,WeatherDisplay:10.37,2013-01-14 05:24:00,
2013-01-13 21:29:00,32.5,27.6,30.19,WNW,300,0.0,0.0,82,0.00,,,0.00,0.0,WeatherDisplay:10.37,2013-01-14 05:29:00,
2013-01-13 21:34:00,32.5,27.9,30.19,WNW,300,0.0,0.0,83,0.00,,,0.00,0.0,WeatherDisplay:10.37,2013-01-14 05:34:00,
2013-01-13 21:39:00,32.4,27.8,30.19,WNW,300,0.0,0.0,83,0.00,,,0.00,0.0,WeatherDisplay:10.37,2013-01-14 05:39:00,
2013-01-13 21:44:00,32.3,27.7,30.19,WNW,300,0.0,0.0,83,0.00,,,0.00,0.0,WeatherDisplay:10.37,2013-01-14 05:44:00,
2013-01-13 21:49:00,32.2,27.6,30.19,WNW,300,0.0,0.0,83,0.00,,,0.00,0.0,WeatherDisplay:10.37,2013-01-14 05:49:00,
2013-01-13 21:54:00,32.3,27.7,30.19,WNW,300,1.2,0.0,83,0.00,,,0.00,0.0,WeatherDisplay:10.37,2013-01-14 05:54:00,
2013-01-13 21:59:00,32.4,28.1,30.19,WNW,300,1.2,1.2,84,0.00,,,0.00,0.0,WeatherDisplay:10.37,2013-01-14 05:59:00,
2013-01-13 22:04:00,32.5,28.2,30.19,WNW,300,1.2,1.2,84,0.00,,,0.00,0.0,WeatherDisplay:10.37,2013-01-14 06:04:00,
2013-01-13 22:09:00,32.6,28.3,30.19,WNW,300,1.2,0.0,84,0.00,,,0.00,0.0,WeatherDisplay:10.37,2013-01-14 06:09:00,
2013-01-13 22:14:00,32.7,28.1,30.19,WNW,300,0.0,0.1,83,0.00,,,0.00,0.0,WeatherDisplay:10.37,2013-01-14 06:14:00,
2013-01-13 22:19:00,32.8,28.2,30.19,WNW,302,1.2,1.2,83,0.00,,,0.00,0.0,WeatherDisplay:10.37,2013-01-14 06:19:00,
2013-01-13 22:24:00,32.9,28.3,30.19,WNW,302,1.2,1.2,83,0.00,,,0.00,0.0,WeatherDisplay:10.37,2013-01-14 06:24:00,
2013-01-13 22:29:00,33.1,28.5,30.19,WNW,302,1.2,0.0,83,0.00,CLR,,0.00,0.0,WeatherDisplay:10.37,2013-01-14 06:29:00,
2013-01-13 22:34:00,33.1,28.2,30.19,WNW,302,0.0,0.0,82,0.00,,,0.00,0.0,WeatherDisplay:10.37,2013-01-14 06:34:00,
2013-01-13 22:39:00,33.0,28.1,30.19,WNW,302,0.0,0.0,82,0.00,,,0.00,0.0,WeatherDisplay:10.37,2013-01-14 06:39:00,
2013-01-13 22:44:00,32.8,27.6,30.20,WNW,302,0.0,0.0,81,0.00,,,0.00,0.0,WeatherDisplay:10.37,2013-01-14 06:44:00,
2013-01-13 22:49:00,32.5,27.3,30.20,WNW,302,0.0,0.0,81,0.00,,,0.00,0.0,WeatherDisplay:10.37,2013-01-14 06:49:00,
2013-01-13 22:54:00,32.3,27.4,30.20,WNW,302,1.2,0.0,82,0.00,,,0.00,0.0,WeatherDisplay:10.37,2013-01-14 06:54:00,
2013-01-13 23:00:00,32.2,27.3,30.20,WNW,302,0.0,0.0,82,0.00,,,0.00,0.0,WeatherDisplay:10.37,2013-01-14 07:00:00,
2013-01-13 23:05:00,32.1,27.2,30.21,WNW,302,0.0,1.0,82,0.00,,,0.00,0.0,WeatherDisplay:10.37,2013-01-14 07:05:00,
2013-01-13 23:10:00,32.1,27.2,30.21,WNW,302,0.0,1.0,82,0.00,,,0.00,0.0,WeatherDisplay:10.37,2013-01-14 07:10:00,
2013-01-13 23:15:00,32.0,27.1,30.21,WNW,302,0.0,0.0,82,0.00,,,0.00,0.0,WeatherDisplay:10.37,2013-01-14 07:15:00,
2013-01-13 23:20:00,31.9,27.0,30.21,WNW,302,0.0,0.0,82,0.00,,,0.00,0.0,WeatherDisplay:10.37,2013-01-14 07:20:00,
2013-01-13 23:25:00,31.8,26.9,30.21,WNW,302,0.0,0.0,82,0.00,,,0.00,0.0,WeatherDisplay:10.37,2013-01-14 07:25:00,
2013-01-13 23:30:00,31.6,26.7,30.22,WNW,302,0.0,0.0,82,0.00,,,0.00,0.0,WeatherDisplay:10.37,2013-01-14 07:30:00,
2013-01-13 23:35:00,31.5,26.6,30.22,SW,217,2.3,2.3,82,0.00,,,0.00,0.0,WeatherDisplay:10.37,2013-01-14 07:35:00,
2013-01-13 23:40:00,31.5,26.6,30.22,SW,217,1.2,0.0,82,0.00,,,0.00,0.0,WeatherDisplay:10.37,2013-01-14 07:40:00,
2013-01-13 23:45:00,31.5,26.9,30.22,WSW,254,0.0,0.0,83,0.00,,,0.00,0.0,WeatherDisplay:10.37,2013-01-14 07:45:00,
2013-01-13 23:50:00,31.8,27.2,30.22,WNW,295,4.0,4.0,83,0.00,,,0.00,0.0,WeatherDisplay:10.37,2013-01-14 07:50:00,
2013-01-13 23:55:00,33.0,27.5,30.22,WNW,297,8.1,8.1,80,0.00,,,0.00,0.0,WeatherDisplay:10.37,2013-01-14 07:55:00,